GSAT0224 (PRN E10)

Last updated on Mon Jul 22 2024 00:03:08 GMT+0000 (Coordinated Universal Time)

1 49810U 21116B 24203.45238529 -.00000072 00000+0 00000+0 0 9990 2 49810 57.2990 0.4428 0002282 149.3858 55.2530 1.70475841 16347

Satellite not in orbit

GSAT0224 (PRN E10)